Weather History for Buffalo, WY

Change the Weather History Date:

Tuesday, June 25, 2013

  Actual Average Record
Temperature  
Mean Temperature 70 °F 65 °F  
Max Temperature 81 °F 78 °F 100 °F (2012)
Min Temperature 59 °F 52 °F 40 °F (2003)
Degree Days  
Heating Degree Days 0 3  
Month to date heating degree days 100 150  
Since 1 June heating degree days 100 150  
Since 1 July heating degree days 7128 7404  
Cooling Degree Days 5 3  
Month to date cooling degree days 40 35  
Year to date cooling degree days 50 42  
Since 1 June cooling degree days 40 35  
Growing Degree Days 20 (Base 50)    
Moisture  
Dew Point 46 °F    
Average Humidity 45    
Maximum Humidity 65    
Minimum Humidity 25    
Precipitation  
Precipitation T in 0.08 in 0.05 in (2010)
Month to date precipitation 0.95 2.00  
Year to date precipitation 4.08 7.52  
Sea Level Pressure  
Sea Level Pressure 29.71 in    
Wind  
Wind Speed 7 mph (NNW)    
Max Wind Speed 26 mph    
Max Gust Speed 36 mph    
Visibility 10 miles    
Events Rain    
T = Trace of Precipitation, MM = Missing Value Source: NWS Daily Summary

Daily Weather History Graph

Daily Weather History Graph

Search for Another Location

Airport:

Trip Planner

Search our weather history database for the weather conditions in past years. The results will help you decide how hot, cold, wet, or windy it might be!

Date:

Astronomy

Jun. 25, 2013 Rise Set
Actual Time 5:23 AM MDT 8:55 PM MDT
Civil Twilight 4:47 AM MDT 9:32 PM MDT
Nautical Twilight 3:58 AM MDT 10:20 PM MDT
Astronomical Twilight 2:56 AM MDT 11:22 PM MDT
Moon 10:34 PM MDT (6/25) 8:13 AM MDT (6/25)
Length of Visible Light 16h 44m
Length of Day
15h 31m
Waning Gibbous, 92% of the Moon is Illuminated
Jun 25
Waning Gibbous
Jun 29
Last Quarter
Jul 8
New
Jul 15
First Quarter
Jul 22
Full

Hourly Weather History & Observations

Time (MDT) Temp. Dew Point Humidity Pressure Visibility Wind Dir Wind Speed Gust Speed Precip Events Conditions
12:53 AM 64.9 °F 41.0 °F 42% 29.52 in 10.0 mi South 12.7 mph - N/A   Clear
1:53 AM 69.1 °F 37.0 °F 31% 29.52 in 10.0 mi South 5.8 mph - N/A   Clear
2:53 AM 66.0 °F 43.0 °F 43% 29.57 in 10.0 mi NNW 3.5 mph - N/A   Clear
3:53 AM 64.9 °F 43.0 °F 45% 29.59 in 10.0 mi North 5.8 mph - N/A   Partly Cloudy
4:53 AM 63.0 °F 44.1 °F 50% 29.60 in 10.0 mi NNW 11.5 mph - N/A   Overcast
5:53 AM 61.0 °F 45.0 °F 56% 29.66 in 10.0 mi NW 10.4 mph - N/A   Overcast
6:53 AM 63.0 °F 45.0 °F 52% 29.67 in 10.0 mi NNW 15.0 mph 26.5 mph N/A   Overcast
7:53 AM 63.0 °F 48.0 °F 58% 29.71 in 10.0 mi NNW 20.7 mph 29.9 mph 0.00 in Rain Light Rain
8:53 AM 63.0 °F 48.9 °F 60% 29.74 in 10.0 mi North 9.2 mph 18.4 mph 0.00 in   Overcast
9:53 AM 68.0 °F 48.9 °F 50% 29.74 in 10.0 mi NNE 9.2 mph - N/A   Partly Cloudy
10:53 AM 68.0 °F 48.0 °F 49% 29.76 in 10.0 mi Variable 3.5 mph - N/A   Mostly Cloudy
11:53 AM 69.1 °F 48.0 °F 47% 29.78 in 10.0 mi Variable 5.8 mph - N/A   Overcast
12:53 PM 72.0 °F 48.9 °F 44% 29.76 in 10.0 mi North 6.9 mph - N/A   Mostly Cloudy
1:53 PM 75.9 °F 50.0 °F 40% 29.74 in 10.0 mi NNE 9.2 mph - N/A   Partly Cloudy
2:53 PM 77.0 °F 50.0 °F 39% 29.75 in 10.0 mi North 8.1 mph - N/A   Mostly Cloudy
3:53 PM 78.1 °F 46.0 °F 32% 29.73 in 10.0 mi NE 3.5 mph - N/A   Clear
4:53 PM 77.0 °F 44.1 °F 31% 29.73 in 10.0 mi Calm Calm - N/A   Clear
5:53 PM 79.0 °F 39.9 °F 25% 29.73 in 10.0 mi Calm Calm - N/A   Partly Cloudy
6:53 PM 78.1 °F 46.0 °F 32% 29.74 in 10.0 mi North 10.4 mph - N/A   Clear
7:53 PM 73.9 °F 46.9 °F 38% 29.77 in 10.0 mi NNW 6.9 mph - N/A   Clear
8:53 PM 66.9 °F 50.0 °F 54% 29.80 in 10.0 mi West 4.6 mph - N/A   Partly Cloudy
9:53 PM 62.1 °F 50.0 °F 65% 29.82 in 10.0 mi WSW 6.9 mph - N/A   Clear
10:53 PM 63.0 °F 48.0 °F 58% 29.82 in 10.0 mi West 4.6 mph - N/A   Clear
11:53 PM 63.0 °F 45.0 °F 52% 29.82 in 10.0 mi West 4.6 mph - N/A   Clear